TimeCST,TemperatureF,Dew PointF,Humidity,Sea Level PressureIn,VisibilityMPH,Wind Direction,Wind SpeedMPH,Gust SpeedMPH,PrecipitationIn,Events,Conditions,WindDirDegrees,DateUTC
12:53 AM,50.0,46.0,86,29.65,5.0,SSE,8.1,-,N/A,,Overcast,160,2011-11-26 06:53:00
1:46 AM,50.0,46.4,87,29.65,4.0,SSE,5.8,-,N/A,,Overcast,160,2011-11-26 07:46:00
1:53 AM,50.0,46.9,89,29.66,4.0,South,6.9,-,0.00,Rain,Light Rain,170,2011-11-26 07:53:00
2:53 AM,48.9,48.0,97,29.67,3.0,South,4.6,-,0.02,Rain,Light Rain,170,2011-11-26 08:53:00
3:03 AM,48.2,46.4,93,29.65,2.5,SSE,3.5,-,0.00,Rain,Light Rain,150,2011-11-26 09:03:00
3:53 AM,48.9,46.9,93,29.65,2.0,Calm,Calm,-,0.01,Rain,Light Rain,0,2011-11-26 09:53:00
4:53 AM,48.9,46.9,93,29.66,2.0,ESE,3.5,-,0.01,,Overcast,120,2011-11-26 10:53:00
5:05 AM,48.2,48.2,100,29.66,1.8,Calm,Calm,-,N/A,,Overcast,0,2011-11-26 11:05:00
5:35 AM,48.2,48.2,100,29.65,2.0,WSW,3.5,-,N/A,,Overcast,240,2011-11-26 11:35:00
6:02 AM,48.2,46.4,93,29.66,3.0,West,5.8,-,N/A,,Overcast,270,2011-11-26 12:02:00
6:19 AM,48.2,44.6,87,29.67,3.0,West,5.8,-,N/A,,Overcast,260,2011-11-26 12:19:00
6:41 AM,44.6,41.0,87,29.70,6.0,West,11.5,18.4,N/A,,Overcast,260,2011-11-26 12:41:00
6:53 AM,44.1,41.0,89,29.71,6.0,West,12.7,20.7,N/A,,Overcast,270,2011-11-26 12:53:00
7:03 AM,42.8,41.0,93,29.71,5.0,West,10.4,16.1,N/A,,Overcast,270,2011-11-26 13:03:00
7:24 AM,42.8,41.0,93,29.72,2.5,West,12.7,17.3,N/A,,Overcast,270,2011-11-26 13:24:00
7:53 AM,42.1,41.0,96,29.75,1.8,West,8.1,-,N/A,,Overcast,260,2011-11-26 13:53:00
8:53 AM,42.1,39.9,92,29.77,1.8,West,5.8,-,N/A,,Overcast,270,2011-11-26 14:53:00
9:00 AM,42.8,39.2,87,29.75,2.0,West,6.9,-,N/A,,Overcast,260,2011-11-26 15:00:00
9:53 AM,42.1,39.9,92,29.77,2.0,West,8.1,-,N/A,,Overcast,280,2011-11-26 15:53:00
10:53 AM,44.1,42.1,93,29.78,2.0,NW,15.0,24.2,N/A,,Overcast,310,2011-11-26 16:53:00
11:04 AM,44.6,42.8,93,29.76,2.5,NW,12.7,24.2,N/A,,Overcast,310,2011-11-26 17:04:00
11:11 AM,44.6,42.8,93,29.77,3.0,NW,18.4,25.3,N/A,,Overcast,320,2011-11-26 17:11:00
11:53 AM,43.0,39.0,86,29.79,10.0,NW,20.7,28.8,0.00,,Overcast,310,2011-11-26 17:53:00
12:05 PM,42.8,39.2,87,29.79,10.0,NW,21.9,29.9,N/A,,Overcast,310,2011-11-26 18:05:00
12:53 PM,42.1,37.9,85,29.82,10.0,NW,18.4,31.1,N/A,,Overcast,320,2011-11-26 18:53:00
1:53 PM,42.1,36.0,79,29.84,10.0,NNW,21.9,27.6,N/A,,Overcast,330,2011-11-26 19:53:00
2:53 PM,39.9,33.1,77,29.88,10.0,NNW,18.4,27.6,N/A,,Overcast,330,2011-11-26 20:53:00
3:53 PM,39.0,33.1,79,29.94,10.0,NW,17.3,24.2,N/A,,Overcast,320,2011-11-26 21:53:00
4:53 PM,39.0,32.0,76,29.95,10.0,NNW,16.1,25.3,N/A,,Overcast,330,2011-11-26 22:53:00
5:53 PM,39.0,30.9,73,29.99,10.0,NNW,16.1,23.0,N/A,,Overcast,330,2011-11-26 23:53:00
7:53 PM,37.0,28.9,73,30.04,10.0,NNW,21.9,29.9,N/A,,Overcast,330,2011-11-27 01:53:00
8:53 PM,37.0,30.0,76,30.05,10.0,NNW,17.3,25.3,N/A,,Overcast,330,2011-11-27 02:53:00
10:53 PM,37.0,28.9,73,30.06,10.0,NNW,20.7,27.6,N/A,,Overcast,340,2011-11-27 04:53:00
11:53 PM,37.0,28.9,73,30.07,10.0,NW,15.0,23.0,N/A,,Overcast,320,2011-11-27 05:53:00